Regional Weather Roundup
Issued by NWS Jackson, KY

Home | Current Version | Previous Version | Graphics & Text | Print | Product List | Glossary On
Versions: 1 2 3 4 5 6 7 8 9 10 11 12 13 14 15 16 17 18 19 20 21 22 23 24 25 26 27 28 29 30 31 32 33 34 35 36 37 38 39 40 41 42 43 44 45 46 47 48 49 50
000
ASUS43 KJKL 311510
RWRJKL

EAST KENTUCKY HOURLY WEATHER ROUNDUP
NATIONAL WEATHER SERVICE JACKSON KY
1100 AM EDT MON AUG 31 2015

NOTE: "FAIR" INDICATES FEW OR NO CLOUDS BELOW 12,000 FEET WITH
NO SIGNIFICANT WEATHER AND/OR OBSTRUCTIONS TO VISIBILITY.

* THESE REPORTS ARE NOT UNDER NWS QUALITY CONTROL AND MAY NOT
  REPORT WEATHER SUCH AS PRECIPITATION AND FOG.

KYZ079-080-083-085-087-088-110-112-115-119-120-311600
...EASTERN KENTUCKY...

CITY           SKY/WX    TMP DP  RH WIND       PRES   REMARKS
JACKSON        SUNNY     76  64  66 CALM      30.19S
LONDON         SUNNY     79  63  57 VRB6      30.18S
SOMERSET*      MOSUNNY   72  70  94 NE3       30.19R
MONTICELLO*    SUNNY     80  67  64 VRB3      30.20S
MIDDLESBORO*   SUNNY     74  64  70 CALM      30.19R
HARLAN APT*      N/A     73  63  68 MISG      30.19S
HAZARD APT*    SUNNY     77  66  69 CALM      30.19R
BLACK MTN*       N/A     68  61  77 NE1         N/A
PIKEVILLE APT* SUNNY     73  68  83 NW3       30.20R
BIG SANDY*     SUNNY     77  69  77 CALM      30.18S
MOREHEAD APT*  SUNNY     77  64  65 NW5       30.20R
$$

KYZ035-036-041-042-044-050-067-078-099-311600
...CENTRAL KENTUCKY...

CITY           SKY/WX    TMP DP  RH WIND       PRES   REMARKS
MT STERLING*   SUNNY     79  64  61 W5        30.20R
DANVILLE*      SUNNY     77  61  57 N5        30.19S
RICHMOND*      SUNNY     77  64  65 CALM      30.18R
LEXINGTON      SUNNY     79  62  56 W8        30.18R
FRANKFORT      SUNNY     78  64  61 VRB5      30.17R
$$

KYZ091>093-OHZ055-061-077-WVZ005-015-034-035-042-311600
...SOUTHERN OHIO/WEST VIRGINIA...

CITY           SKY/WX    TMP DP  RH WIND       PRES   REMARKS
COVINGTON      MOSUNNY   79  68  69 W8        30.16R
COLUMBUS       MOSUNNY   79  68  69 NW3       30.13S
DAYTON         MOSUNNY   78  70  76 W5        30.15S
WILMINGTON     SUNNY     79  69  71 NW5       30.15R
HUNTINGTON     SUNNY     81  66  60 CALM      30.16R
CHARLESTON     MOSUNNY   79  67  66 CALM      30.16S
PINEVILLE*     CLOUDY    76  66  71 MISG      30.25R
BECKLEY        PTSUNNY   73  59  61 VRB3      30.23R
BLUEFIELD      PTSUNNY   75  59  57 CALM      30.25R
$$

VAZ002-007-008-TNZ017-027-036-066-071-311600
...SOUTHWEST VIRGINIA/EAST TENNESSEE...

CITY           SKY/WX    TMP DP  RH WIND       PRES   REMARKS
WISE*          MOSUNNY   73  59  60 N5        30.26R
JONESVILLE*    SUNNY     75  50  41 CALM      30.21R
ABINGDON*      SUNNY     75  61  61 CALM      30.22R
BRISTOL        MOSUNNY   74  64  71 CALM      30.19S
KNOXVILLE      CLOUDY    77  65  66 CALM      30.17R
OAK RIDGE      MOSUNNY   77  65  66 SE5       30.18R
CROSSVILLE     SUNNY     77  63  61 CALM      30.21R
NASHVILLE      MOSUNNY   78  65  63 VRB3      30.16S
$$

...KEY TO REMARKS...
VSB - VISIBILITY IN MILES
WCI - WIND CHILL INDEX
HX  - HEAT INDEX

$$


USA.gov is the U.S. government's official web portal to all federal, state and local government web resources and services.